Weather History for Renton, WA

Change the Weather History Date:

Thursday, November 24, 2011

  Actual Average Record
Temperature  
Mean Temperature 42 °F -  
Max Temperature 46 °F 48 °F 57 °F (2004)
Min Temperature 37 °F 38 °F 15 °F (2010)
Degree Days  
Heating Degree Days 24    
Moisture  
Dew Point 38 °F    
Average Humidity 85    
Maximum Humidity 100    
Minimum Humidity 71    
Precipitation  
Precipitation 0.00 in - - ()
Sea Level Pressure  
Sea Level Pressure 29.73 in    
Wind  
Wind Speed 5 mph (SSE)    
Max Wind Speed 13 mph    
Max Gust Speed 38 mph    
Visibility 9 miles    
Events Rain    
Averages and records for this station are not official NWS values.
T = Trace of Precipitation, MM = Missing Value Source: NWS Daily Summary

Daily Weather History Graph

Daily Weather History Graph

Search for Another Location

Airport:

Trip Planner

Search our weather history database for the weather conditions in past years. The results will help you decide how hot, cold, wet, or windy it might be!

Date:

Astronomy

Nov. 24, 2011 Rise Set
Actual Time 7:26 AM PST 4:24 PM PST
Civil Twilight 6:51 AM PST 4:58 PM PST
Nautical Twilight 6:13 AM PST 5:36 PM PST
Astronomical Twilight 5:37 AM PST 6:13 PM PST
Moon 6:52 AM PST (11/24) 3:57 PM PST (11/24)
Length of Visible Light 10h 06m
Length of Day
8h 57m
Waning Crescent, 0% of the Moon is Illuminated
Nov 24
Waning Crescent
Nov 24
New
Dec 2
First Quarter
Dec 10
Full
Dec 17
Last Quarter

Hourly Weather History & Observations

Time (PST) Temp. Windchill Dew Point Humidity Pressure Visibility Wind Dir Wind Speed Gust Speed Precip Events Conditions
12:09 AM 42.8 °F 39.3 °F 37.4 °F 81% 29.85 in 10.0 mi SSE 5.8 mph - N/A   Mostly Cloudy
12:53 AM 39.9 °F - 37.9 °F 93% 29.87 in 10.0 mi Calm Calm - N/A   Clear
1:53 AM 37.9 °F - 37.9 °F 100% 29.86 in 8.0 mi Calm Calm - N/A   Partly Cloudy
2:53 AM 37.4 °F 34.9 °F 37.4 °F 100% 29.84 in 9.0 mi ESE 3.5 mph - N/A   Overcast
3:53 AM 37.9 °F 34.4 °F 37.0 °F 97% 29.85 in 10.0 mi SSE 4.6 mph - N/A   Overcast
4:53 AM 39.0 °F - 37.0 °F 93% 29.83 in 10.0 mi Calm Calm - N/A   Overcast
5:53 AM 39.0 °F 36.8 °F 37.0 °F 93% 29.81 in 10.0 mi SSE 3.5 mph - N/A   Partly Cloudy
6:53 AM 37.9 °F 35.5 °F 37.0 °F 97% 29.78 in 10.0 mi SE 3.5 mph - N/A   Overcast
7:53 AM 39.0 °F 35.7 °F 36.0 °F 89% 29.77 in 10.0 mi SSE 4.6 mph - N/A   Mostly Cloudy
8:53 AM 39.0 °F 36.8 °F 37.0 °F 93% 29.77 in 10.0 mi ESE 3.5 mph - N/A   Mostly Cloudy
9:53 AM 41.0 °F 38.0 °F 36.0 °F 82% 29.75 in 10.0 mi SSE 4.6 mph - N/A   Mostly Cloudy
10:53 AM 43.0 °F 40.3 °F 35.1 °F 74% 29.70 in 10.0 mi Variable 4.6 mph - N/A   Overcast
11:53 AM 44.6 °F - 35.6 °F 71% 29.64 in 10.0 mi Calm Calm - N/A Rain Light Rain
12:53 PM 45.0 °F 41.8 °F 37.0 °F 74% 29.62 in 5.0 mi ESE 5.8 mph 38.0 mph 0.00 in Rain Light Rain
1:53 PM 42.1 °F - 37.9 °F 85% 29.62 in 5.0 mi Calm Calm - 0.00 in Rain Light Rain
2:53 PM 42.1 °F 37.1 °F 39.0 °F 89% 29.58 in 10.0 mi SE 8.1 mph - 0.00 in Rain Light Rain
3:53 PM 46.0 °F 43.1 °F 39.0 °F 76% 29.62 in 7.0 mi SW 5.8 mph - 0.00 in Rain Light Rain
4:05 PM 46.4 °F 44.3 °F 39.2 °F 76% 29.60 in 2.5 mi Variable 4.6 mph - 0.00 in Rain Rain
4:15 PM 44.6 °F 39.7 °F 39.2 °F 81% 29.60 in 6.0 mi SSE 9.2 mph - 0.00 in Rain Light Rain
4:53 PM 45.0 °F 42.6 °F 39.9 °F 82% 29.65 in 10.0 mi ESE 4.6 mph - 0.00 in Rain Light Rain
5:53 PM 45.0 °F 39.3 °F 39.0 °F 80% 29.68 in 10.0 mi SSE 11.5 mph 20.7 mph 0.00 in   Overcast
6:05 PM 44.6 °F 39.2 °F 39.2 °F 81% 29.66 in 10.0 mi SSE 10.4 mph - N/A   Overcast
6:53 PM 44.1 °F 40.1 °F 39.9 °F 85% 29.70 in 10.0 mi SSE 6.9 mph - 0.00 in   Overcast
7:29 PM 44.6 °F 40.7 °F 39.2 °F 81% 29.71 in 10.0 mi SSE 6.9 mph - N/A   Overcast
7:53 PM 45.0 °F 39.7 °F 39.0 °F 80% 29.73 in 10.0 mi SSE 10.4 mph - N/A   Overcast
8:53 PM 44.1 °F 37.7 °F 39.9 °F 85% 29.75 in 10.0 mi SSE 12.7 mph - 0.00 in Rain Light Rain
9:02 PM 44.6 °F 38.8 °F 39.2 °F 81% 29.75 in 10.0 mi South 11.5 mph 19.6 mph 0.00 in   Overcast
9:09 PM 44.6 °F 39.2 °F 39.2 °F 81% 29.75 in 10.0 mi SSE 10.4 mph 19.6 mph 0.00 in   Mostly Cloudy
9:53 PM 44.1 °F 37.7 °F 37.9 °F 79% 29.78 in 10.0 mi South 12.7 mph 19.6 mph 0.00 in   Partly Cloudy
10:53 PM 42.8 °F 37.5 °F 37.4 °F 81% 29.82 in 10.0 mi South 9.2 mph 18.4 mph N/A   Clear